Skip Page Navigation
NASA JPL Caltech
NASA Logo - Jet Propulsion Laboratory + View the NASA Portal
+ Center for Near-Earth Object Studies
JPL Home Earth Solar System Stars & Galaxies Technology
JPL Solar System Dynamics
BODIES ORBITS EPHEMERIDES TOOLS PHYSICAL DATA DISCOVERY FAQ SITE MAP

Significant website upgrade scheduled for September 27. More details available here.

JPL Small-Body Database Browser
Search: [ help ]  
71550 (2000 DG6)
Classification: Outer Main-belt Asteroid          SPK-ID: 2071550
Ephemeris | Orbit Diagram | Orbital Elements | Mission Design | Physical Parameters | Discovery Circumstances | Close-Approach Data ]

[ show orbit diagram ]
Orbital Elements at Epoch 2459396.5 (2021-Jul-01.0) TDB
Reference: JPL 24 (heliocentric ecliptic J2000)
 Element Value Uncertainty (1-sigma)   Units 
e .08056809290440942 4.1759e-08  
a 3.205284313863064 2.4991e-08 au
q 2.947040669478699 1.4347e-07 au
i 6.826113172373505 5.0358e-06 deg
node 26.62634086667329 4.6474e-05 deg
peri 33.90910259900765 6.144e-05 deg
M 330.314796188467 3.9908e-05 deg
tp 2459569.336633438384
(2021-Dec-20.83663344)
0.00023237 TDB
period 2096.033715410933
5.74
2.4514e-05
6.712e-08
d
yr
n .1717529624419333 2.0087e-09 deg/d
Q 3.46352795824743 2.7005e-08 au
  Orbit Determination Parameters
   # obs. used (total)      841  
   data-arc span      16219 days (44.41 yr)  
   first obs. used      1977-02-12  
   last obs. used      2021-07-10  
   planetary ephem.      DE441  
   SB-pert. ephem.      SB441-N16  
   condition code      0  
   norm. resid. RMS      .57512  
   source      ORB  
   producer      Otto Matic  
   solution date      2021-Aug-25 22:01:12  

Additional Information
 Earth MOID = 1.96179 au 
 Jupiter MOID = 1.85161 au 
 T_jup = 3.177 
[ show covariance matrix ]

Ephemeris | Orbit Diagram | Orbital Elements | Mission Design | Physical Parameters | Discovery Circumstances | Close-Approach Data ]

Physical Parameter Table
Parameter Symbol Value Units Sigma Reference Notes
absolute magnitude H 14.29   n/a E2021B10  

71550 (2000 DG6)          Discovered 2000-Feb-28 by LINEAR at Socorro
Reference: 20031109/Numbers.arcLast Updated: 2004-04-19

[ hide close-approach data ]
Close-Approach Data   ...sorted by Date/Time (TDB)
Date/Time (TDB) Time Uncertainty
(days_HH:MM)
Body Nominal Distance (au) Minimum Distance (au) Maximum Distance (au) V-relative (km/s) V-infinity (km/s) JD (TDB) Time Uncertainty (minutes) Semi-major axis (km) Semi-minor axis (km) range-LOV angle (deg) N-sigma BP Orbit Ref. Reference Modified
1986-Apr-25 03:37 00:01 Jupiter 1.93686997798621 1.93686940585213 1.93687055012028 3.87024248291515 3.75554878184148 2446545.650547781 1.16406669085998 56.9310304812297 22.6440544555532 83.7342319077406 2361411.22558719 T 24 CATAB v2.0g-lin.ifort 2021-Aug-25 22:01:15 2021-Aug-25 22:01
1997-May-04 23:00 < 00:01 Jupiter 1.89583864326897 1.89583807188415 1.89583921465379 3.13872994404194 2.99300283240833 2450573.458018208 0.786445915002327 44.4177162150063 18.9273157453816 82.5346328173083 2244675.9587723 T 24 CATAB v2.0g-lin.ifort 2021-Aug-25 22:01:15 2021-Aug-25 22:01
2008-May-19 01:44 < 00:01 Jupiter 1.88027267492066 1.88027211086882 1.8802732389725 2.69064298583041 2.51765815274532 2454605.572241054 0.42272913180188 56.7189891561487 11.7554100949939 75.2281286754002 2512523.29766525 T 24 CATAB v2.0g-lin.ifort 2021-Aug-25 22:01:15 2021-Aug-25 22:01
2019-Jun-13 05:18 < 00:01 Jupiter 1.89594983970699 1.89594933460374 1.89595034481046 2.68977967540999 2.51821512230855 2458647.720716659 0.366846720491338 69.3894722262442 8.66535233291513 75.0875268253358 3087395.20678468 T 24 CATAB v2.0g-lin.ifort 2021-Aug-25 22:01:15 2021-Aug-25 22:01
2030-Jul-17 18:43 < 00:01 Jupiter 1.94175688759881 1.94175645257034 1.9417573226275 2.9828180972899 2.83280334654512 2462700.279824645 0.698591635654635 71.6749287173861 10.7164551401518 79.3827260007621 3449489.56654012 T 24 CATAB v2.0g-lin.ifort 2021-Aug-25 22:01:15 2021-Aug-25 22:01
2141-Mar-01 11:59 00:04 Jupiter 1.94446655393377 1.94446552811068 1.94446757976073 4.24306475432074 4.13912856302706 2503103.999014366 4.42329457053517 176.86251795383 25.2195898258802 78.8606958482837 2412022.66181505 T 24 CATAB v2.0g-lin.ifort 2021-Aug-25 22:01:15 2021-Aug-25 22:01
2152-Mar-12 09:19 00:05 Jupiter 1.8753134481896 1.87531268925069 1.87531420712967 3.50537835053845 3.37406842184859 2507132.888084798 4.76705018728145 131.028952694994 21.6765751687388 86.5508796131743 1802386.040836 T 24 CATAB v2.0g-lin.ifort 2021-Aug-25 22:01:15 2021-Aug-25 22:01
2163-Mar-26 13:41 00:05 Jupiter 1.85487406027543 1.85487350388736 1.85487461666338 2.86863454648317 2.70476807471008 2511164.070177612 5.13080595619475 77.429249656321 23.5486936116566 -78.1697247613925 1560504.15109085 T 24 CATAB v2.0g-lin.ifort 2021-Aug-25 22:01:15 2021-Aug-25 22:01
2174-Apr-13 21:02 00:05 Jupiter 1.86847915579578 1.86847858742295 1.8684797241686 2.57799061097755 2.39570277807371 2515200.376548056 5.45910796880127 94.540112266731 26.6812688328685 -84.4940392604767 2867546.78959663 T 24 CATAB v2.0g-lin.ifort 2021-Aug-25 22:01:15 2021-Aug-25 22:01
2185-May-09 07:58 00:06 Jupiter 1.91201687619682 1.91201604239243 1.91201771000109 2.72546877847219 2.55776876825456 2519243.832136485 5.7326015036471 88.6771703626819 24.5244970339812 88.3500913210637 1925562.13299874 T 24 CATAB v2.0g-lin.ifort 2021-Aug-25 22:01:15 2021-Aug-25 22:01
2196-Jun-13 22:09 00:06 Jupiter 1.98366653646826 1.98366531691002 1.98366775602662 3.12948556548102 2.98993027176571 2523297.422930996 6.02028633073481 84.7124142775345 27.1958294167399 67.8741147412179 1261725.87102862 T 24 CATAB v2.0g-lin.ifort 2021-Aug-25 22:01:15 2021-Aug-25 22:01

Alternate Designations
 2000 DG6 = 1977 CF3 
Ephemeris | Orbit Diagram | Orbital Elements | Mission Design | Physical Parameters | Discovery Circumstances | Close-Approach Data ]
ABOUT SSD CREDITS/AWARDS PRIVACY/COPYRIGHT GLOSSARY LINKS
FirstGov 2021-Sep-21 06:19 UT
(server date/time)  
NASA Home Page
Site Manager:   Ryan S. Park
Webmaster  Alan B. Chamberlin